Prescott, AZ

1:06 PM MST on November 13, 2019 (GMT -0700)
Love

Weather History for KPRC - September, 2019

Change the Weather History Date:

Friday, September 27, 2019

  Actual Average Record
Temperature  
Mean Temperature 62 °F 64 °F  
Max Temperature 74 °F 78 °F 93 °F (2010)
Min Temperature 51 °F 49 °F 38 °F (1970)
Degree Days  
Heating Degree Days 2    
Month to date heating degree days 20  
Since 1 July heating degree days 20  
Cooling Degree Days 0    
Month to date cooling degree days 155  
Year to date cooling degree days 1130  
Growing Degree Days 12 (Base 50)    
Moisture  
Dew Point 52 °F    
Average Humidity 73    
Maximum Humidity 96    
Minimum Humidity 46    
Precipitation  
Precipitation 0.00 in 0.04 in 1.36 in (2014)
Month to date precipitation 2.18 1.39  
Year to date precipitation 10.29 11.05  
Sea Level Pressure  
Sea Level Pressure 29.82 in    
Wind  
Wind Speed 4 mph ()    
Max Wind Speed 16 mph    
Max Gust Speed 20 mph    
Visibility 10.0 miles    
Events      
T = Trace of Precipitation, MM = Missing Value Source: Averaged Metar Reports

Daily Weather History Graph

Daily Weather History Graph

Search for Another Location

Airport or City:

Astronomy

Sep. 27, 2019 Rise Set
Actual Time 6:21 AM MST 6:19 PM MST
Civil Twilight 5:56 AM MST 6:44 PM MST
Nautical Twilight 5:26 AM MST 7:13 PM MST
Astronomical Twilight 4:57 AM MST 7:43 PM MST
Moon 4:54 AM MST (9/27) 6:07 PM MST (9/27)
Length of Visible Light 12h 48m
Length of Day
11h 58m
Waning Crescent, 1% of the Moon is Illuminated
Sep 27
Waning Crescent
Sep 28
New
Oct 5
First Quarter
Oct 13
Full
Oct 21
Last Quarter

Hourly Weather History & Observations

Time (MST) Temp. Dew Point Humidity Pressure Visibility Wind Dir Wind Speed Gust Speed Precip Events Conditions
12:53 AM 53.1 °F 51.1 °F 93% 29.90 in 10.0 mi South 5.8 mph - N/A   Clear
1:53 AM 52.0 °F 48.9 °F 89% 29.89 in 10.0 mi South 5.8 mph - N/A   Clear
2:53 AM 52.0 °F 48.9 °F 89% 29.88 in 10.0 mi South 8.1 mph - N/A   Clear
3:53 AM 52.0 °F 48.9 °F 89% 29.87 in 10.0 mi Calm Calm - N/A   Clear
4:53 AM 52.0 °F 50.0 °F 93% 29.87 in 10.0 mi SSW 3.5 mph - N/A   Overcast
5:53 AM 52.0 °F 50.0 °F 93% 29.87 in 10.0 mi Calm Calm - N/A   Clear
6:53 AM 52.0 °F 50.0 °F 93% 29.89 in 10.0 mi Calm Calm - N/A   Clear
7:53 AM 55.9 °F 52.0 °F 87% 29.89 in 10.0 mi Calm Calm - N/A   Partly Cloudy
8:53 AM 61.0 °F 55.0 °F 81% 29.89 in 10.0 mi NNE 4.6 mph - N/A   Scattered Clouds
9:53 AM 63.0 °F 54.0 °F 72% 29.88 in 10.0 mi Calm Calm - N/A   Partly Cloudy
10:53 AM 66.9 °F 52.0 °F 59% 29.86 in 10.0 mi Calm Calm - N/A   Clear
11:53 AM 70.0 °F 52.0 °F 53% 29.83 in 10.0 mi Variable 4.6 mph - N/A   Clear
12:53 PM 71.1 °F 51.1 °F 49% 29.81 in 10.0 mi SE 3.5 mph - N/A   Scattered Clouds
1:53 PM 73.9 °F 52.0 °F 46% 29.77 in 10.0 mi Variable 6.9 mph - N/A   Scattered Clouds
2:53 PM 72.0 °F 51.1 °F 48% 29.76 in 10.0 mi Calm Calm - N/A   Scattered Clouds
3:53 PM 72.0 °F 52.0 °F 49% 29.75 in 10.0 mi WSW 8.1 mph - N/A   Mostly Cloudy
4:53 PM 72.0 °F 53.1 °F 51% 29.75 in 10.0 mi SSW 13.8 mph - N/A   Mostly Cloudy
5:53 PM 68.0 °F 53.1 °F 59% 29.76 in 10.0 mi SW 15.0 mph - N/A   Scattered Clouds
6:53 PM 64.9 °F 53.1 °F 65% 29.78 in 10.0 mi SSW 10.4 mph - N/A   Clear
7:53 PM 63.0 °F 52.0 °F 67% 29.78 in 10.0 mi SSW 10.4 mph - N/A   Clear
8:53 PM 61.0 °F 53.1 °F 75% 29.79 in 10.0 mi South 5.8 mph - N/A   Clear
9:53 PM 60.1 °F 54.0 °F 80% 29.78 in 10.0 mi SSE 3.5 mph - N/A   Clear
10:53 PM 59.0 °F 54.0 °F 83% 29.77 in 10.0 mi Calm Calm - N/A   Clear
11:53 PM 57.0 °F 53.1 °F 87% 29.76 in 10.0 mi SSW 3.5 mph - N/A   Clear